Weather in Tandil

Argentina     37°14′08″S   59°13′43″W
temp.,
°C
wind,
m/s
gust,
m/s
humid.,
%
clouds,
%
prec.,
mm/h
press.,
hPa
HPBL,
m
22 april, thu
thu2200:00+17ne61585100 0.0 1016585
03:00+16nne61496100 5.6 1015805
06:00+16nne61397100 8.3 1015716
09:00+16nne41197100 11.6 1016635
12:00+18n5993100 1.4 1016601
15:00+19n5687100 1.8 1015665
18:00+19nne3791100 0.4 1015325
21:00+17ne3997100 1.7 1016321
23 april, fri
fri2300:00+16nne3699100 10.2 1016233
03:00+16nne38100100 16.5 1015299
06:00+16ne2499100 4.3 1015227
09:00+16nne3998100 4.7 1015407
12:00+18n5990100 0.0 1014587
15:00+19n4683100 0.2 1013742
18:00+17nne4896100 1.9 1013397
21:00+16nnw3799100 2.9 1014329
24 april, sat
sat2400:00+16nw3799100 0.8 1014361
03:00+16w3899100 1.0 1014430
06:00+14sw410920 0.2 1014286
09:00+14ssw613890 0.2 1016446
12:00+17ssw796223 0.0 1017923
15:00+17sw78505 0.0 10171254
18:00+14ssw611736 0.0 1017607
21:00+12ssw511800 0.0 1018477
25 april, sun
sun2500:00+12ssw5118912 0.0 1019464
03:00+13ssw511871 0.0 1019552
06:00+14sse5976100 0.0 1020789
09:00+14sse5985100 0.1 1021547
12:00+17se566788 0.1 10221193
15:00+15sse5570100 0.1 1021923
18:00+14sse3566100 0.0 1021227
21:00+10se34820 0.0 102279
26 april, mon
mon2600:00+9se22850 0.0 102217
03:00+8sse11880 0.0 102210
06:00+8s11890 0.0 102210
09:00+10s11800 0.0 102284
12:00+15ene11600 0.0 1022783
15:00+17n11530 0.0 10201119
18:00+13n11670 0.0 102011
21:00+11n11780 0.0 102110